User: anonymous   Login
Location: Kitchener
(43.2612°N, 80.5078°W)
Time: 04:10:09
(UTC+02:00)
Language:

Iridium 57 - Orbit

View from above orbital plane
View from above orbital plane
View from above satellite
View from above satellite

Ground track
Ground track

The orbit data is extracted from the following two-line orbital elements,

1 25273U 98019B   18170.39861193  .00000081  00000-0  21670-4 0  9992
2 25273  86.3967 133.8767 0002281  85.1255 275.0201 14.34310916 58703
Epoch (UTC): 19 June 2018 09:34:00
Eccentricity: 0.0002281
inclination: 86.3967°
perigee height: 776 km
apogee height: 779 km
right ascension of ascending node: 133.8767°
argument of perigee: 85.1255°
revolutions per day: 14.34310916
mean anomaly at epoch: 275.0201°
orbit number at epoch: 5870

The dashed part of the orbit path shows where the satellite is in the earth's shadow,  

DLR